Weather History for Kalaeloa, HI

Change the Weather History Date:

Friday, January 10, 2014

  Actual Average (PHNL) Record (PHNL)
Temperature  
Mean Temperature 72 °F 73 °F  
Max Temperature 81 °F 80 °F 85 °F (1996)
Min Temperature 62 °F 66 °F 58 °F (1970)
Degree Days  
Heating Degree Days 0 0  
Month to date heating degree days 0  
Since 1 July heating degree days 0  
Cooling Degree Days 6 8  
Month to date cooling degree days 82  
Year to date cooling degree days 82  
Growing Degree Days 22 (Base 50)    
Moisture  
Dew Point 64 °F    
Average Humidity 83    
Maximum Humidity 100    
Minimum Humidity 56    
Precipitation  
Precipitation 0.06 in 0.09 in 3.04 in (1980)
Month to date precipitation 0.92  
Year to date precipitation 0.92  
Snow  
Snow 0.00 in - - ()
Month to date snowfall  
Since 1 July snowfall  
Snow Depth -    
Sea Level Pressure  
Sea Level Pressure 29.98 in    
Wind  
Wind Speed 1 mph (NNE)    
Max Wind Speed 9 mph    
Max Gust Speed 16 mph    
Visibility 10 miles    
Events Rain    
T = Trace of Precipitation, MM = Missing Value Source: NWS Daily Summary

Daily Weather History Graph

Daily Weather History Graph

Search for Another Location

Airport:

Trip Planner

Search our weather history database for the weather conditions in past years. The results will help you decide how hot, cold, wet, or windy it might be!

Date:

Astronomy

Jan. 10, 2014 Rise Set
Actual Time 7:12 AM HST 6:08 PM HST
Civil Twilight 6:48 AM HST 6:31 PM HST
Nautical Twilight 6:20 AM HST 6:59 PM HST
Astronomical Twilight 5:53 AM HST 7:26 PM HST
Moon 2:10 PM HST (1/10) 2:41 AM HST (1/10)
Length of Visible Light 11h 43m
Length of Day
10h 55m
Waxing Gibbous, 76% of the Moon is Illuminated
Jan 10
Waxing Gibbous
Jan 15
Full
Jan 23
Last Quarter
Jan 30
New
Feb 6
First Quarter

Hourly Weather History & Observations

Time (HST) Temp. Heat Index Dew Point Humidity Pressure Visibility Wind Dir Wind Speed Gust Speed Precip Events Conditions
12:53 AM 68.0 °F - 63.0 °F 84% 30.03 in 10.0 mi Calm Calm - N/A   Overcast
1:53 AM 64.9 °F - 62.1 °F 90% 30.01 in 10.0 mi Calm Calm - N/A   Clear
2:53 AM 62.1 °F - 61.0 °F 96% 30.00 in 10.0 mi Calm Calm - N/A   Clear
3:53 AM 64.0 °F - 61.0 °F 90% 30.00 in 10.0 mi Calm Calm - N/A   Clear
4:53 AM 64.0 °F - 62.1 °F 93% 30.01 in 10.0 mi Calm Calm - N/A   Clear
5:53 AM 63.0 °F - 61.0 °F 93% 30.02 in 10.0 mi Calm Calm - N/A   Clear
6:25 AM 62.6 °F - 60.8 °F 94% 30.00 in 10.0 mi Calm Calm - N/A   Partly Cloudy
6:53 AM 63.0 °F - 61.0 °F 93% 30.03 in 10.0 mi Calm Calm - N/A   Partly Cloudy
7:53 AM 66.0 °F - 63.0 °F 90% 30.04 in 10.0 mi Calm Calm - N/A   Clear
8:53 AM 73.0 °F - 64.9 °F 76% 30.04 in 10.0 mi Calm Calm - N/A   Clear
9:53 AM 75.9 °F - 64.0 °F 67% 30.04 in 10.0 mi ENE 5.8 mph - N/A   Partly Cloudy
10:53 AM 79.0 °F - 64.0 °F 60% 30.03 in 10.0 mi Variable 3.5 mph - N/A   Partly Cloudy
11:53 AM 81.0 °F 82.5 °F 64.0 °F 56% 30.00 in 10.0 mi Variable 6.9 mph - N/A   Scattered Clouds
12:53 PM 78.1 °F - 63.0 °F 60% 29.96 in 10.0 mi Variable 3.5 mph - N/A   Scattered Clouds
1:29 PM 71.6 °F - 68.0 °F 88% 29.93 in 2.5 mi Variable 4.6 mph 16.1 mph 0.05 in Rain Light Rain
1:37 PM 69.8 °F - 69.8 °F 100% 29.93 in 6.0 mi Calm Calm - 0.06 in Rain Light Rain
1:53 PM 72.0 °F - 68.0 °F 87% 29.94 in 10.0 mi Variable 3.5 mph - 0.06 in   Mostly Cloudy
2:53 PM 73.9 °F - 66.9 °F 79% 29.92 in 10.0 mi North 6.9 mph - N/A   Mostly Cloudy
3:53 PM 77.0 °F - 66.0 °F 69% 29.91 in 10.0 mi NNE 9.2 mph - N/A   Partly Cloudy
4:53 PM 75.9 °F - 66.0 °F 71% 29.91 in 10.0 mi Variable 3.5 mph - N/A   Scattered Clouds
5:53 PM 73.9 °F - 64.0 °F 71% 29.94 in 10.0 mi Variable 4.6 mph - N/A   Clear
6:53 PM 70.0 °F - 64.0 °F 81% 29.94 in 10.0 mi Calm Calm - N/A   Partly Cloudy
7:53 PM 69.1 °F - 64.9 °F 87% 29.96 in 10.0 mi Calm Calm - N/A   Clear
8:53 PM 66.9 °F - 64.0 °F 90% 29.98 in 10.0 mi Calm Calm - N/A   Clear
9:24 PM 66.2 °F - 64.4 °F 94% 29.95 in 10.0 mi Calm Calm - N/A   Partly Cloudy
9:53 PM 66.9 °F - 64.0 °F 90% 29.98 in 10.0 mi Variable 3.5 mph - N/A   Clear
10:53 PM 66.0 °F - 64.0 °F 93% 29.97 in 10.0 mi Calm Calm - N/A   Clear
11:53 PM 66.0 °F - 63.0 °F 90% 29.97 in 10.0 mi Calm Calm - N/A   Clear